IQ1LY-3 Weather Reports


time (UTC)temp
C
wind
direction
speed
KPH
gust
KPH
rain 1hr
cm
rain 24hr
cm
rain mn
cm
humidity
%
barometer
mb
20260506001657 13 180 0.0 0.0 0.00 0.00 0.00 90 1009.5
20260506000656 13 158 0.0 1.6 0.00 0.00 0.00 90 1010.2
20260505235655 13 270 1.6 6.4 0.00 0.00 0.00 90 1010.5
20260505234654 13 270 6.4 6.4 0.00 0.00 0.00 90 1010.5
20260505233653 13 248 0.0 0.0 0.00 0.00 0.00 90 1010.2
20260505232448 13 225 0.0 0.0 0.00 0.00 0.00 89 1010.2
20260505231448 13 225 0.0 0.0 0.00 0.00 0.00 89 1010.2
20260505230447 13 225 0.0 0.0 0.00 0.00 0.00 89 1010.5
20260505225446 13 225 0.0 0.0 0.00 0.00 0.00 89 1010.2
20260505224414 13 225 0.0 0.0 0.00 0.00 0.00 89 1010.5
20260505223342 13 270 0.0 0.0 0.00 0.00 0.00 89 1010.5
20260505222342 13 270 0.0 0.0 0.00 0.00 0.00 89 1010.8
20260505221239 13 270 0.0 0.0 0.00 0.00 0.00 89 1011.2
20260505220238 13 270 0.0 0.0 0.00 0.00 0.00 89 1011.2
20260505215238 13 270 0.0 0.0 0.00 0.00 0.00 89 1011.5
20260505214237 13 248 0.0 0.0 0.00 0.00 0.00 89 1011.5
20260505213237 13 248 0.0 0.0 0.00 0.00 0.00 89 1011.5
20260505212236 13 270 0.0 0.0 0.00 0.00 0.00 89 1011.5
20260505211235 13 338 0.0 0.0 0.00 0.00 0.00 89 1011.5
20260505210235 13 338 0.0 0.0 0.00 0.00 0.00 89 1011.5
20260505205234 12 338 0.0 0.0 0.00 0.00 0.00 89 1011.9
20260505204233 12 338 0.0 0.0 0.00 0.00 0.00 89 1011.9
20260505203232 12 248 0.0 0.0 0.00 0.00 0.00 88 1011.9
20260505202231 12 270 0.0 0.0 0.00 0.00 0.00 88 1011.9
20260505201159 12 270 0.0 0.0 0.00 0.00 0.00 88 1011.9
20260505200159 12 270 0.0 0.0 0.00 0.00 0.00 88 1011.9
20260505195158 12 270 0.0 0.0 0.00 0.00 0.00 88 1011.9
20260505194157 12 270 0.0 0.0 0.00 0.00 0.00 87 1011.5
20260505193157 12 270 0.0 0.0 0.00 0.00 0.00 87 1011.5
20260505192155 12 270 0.0 0.0 0.00 0.00 0.00 86 1011.5
20260505191154 13 270 0.0 0.0 0.00 0.00 0.00 86 1011.5
20260505190122 13 270 0.0 0.0 0.00 0.00 0.00 85 1011.2
20260505185122 13 270 0.0 0.0 0.00 0.00 0.00 85 1011.2
20260505184121 13 270 0.0 0.0 0.00 0.00 0.00 84 1011.2
20260505183120 14 270 0.0 0.0 0.00 0.00 0.00 84 1011.2
20260505182119 14 293 0.0 0.0 0.00 0.00 0.00 83 1011.2
20260505181046 15 293 0.0 0.0 0.00 0.00 0.00 82 1011.2
20260505180046 15 293 0.0 0.0 0.00 0.00 0.00 81 1011.5
20260505175045 15 293 0.0 0.0 0.00 0.00 0.00 80 1011.5
20260505174044 16 315 0.0 0.0 0.00 0.00 0.00 78 1011.5
20260505173012 16 180 0.0 0.0 0.00 0.00 0.00 78 1011.5
20260505172011 16 180 0.0 0.0 0.00 0.00 0.00 77 1011.2
20260505171010 17 203 0.0 0.0 0.00 0.00 0.00 76 1011.5
20260505170009 17 203 0.0 0.0 0.00 0.00 0.00 75 1011.5
20260505165008 17 203 0.0 0.0 0.00 0.00 0.00 74 1011.5
20260505164007 17 225 0.0 0.0 0.00 0.00 0.00 73 1011.5
20260505163007 17 113 0.0 0.0 0.00 0.00 0.00 72 1011.5
20260505162005 17 113 0.0 0.0 0.00 0.00 0.00 72 1011.5
20260505161004 17 68 0.0 0.0 0.00 0.00 0.00 71 1011.5
20260505152959 17 158 0.0 0.0 0.00 0.00 0.00 74 1011.5
20260505151958 17 203 0.0 0.0 0.00 0.00 0.00 75 1011.5
20260505150957 17 135 0.0 0.0 0.00 0.00 0.00 75 1011.9
20260505124812 17 135 0.0 0.0 0.00 0.00 0.00 77 1012.2
20260505123812 17 248 0.0 0.0 0.00 0.00 0.00 77 1012.2
20260505122740 17 180 0.0 0.0 0.00 0.00 0.00 77 1012.2
20260505121739 17 180 0.0 0.0 0.00 0.00 0.00 77 1012.2
20260505120738 17 90 0.0 0.0 0.00 0.00 0.00 77 1012.2
20260505115737 17 113 0.0 0.0 0.00 0.00 0.00 78 1012.2
20260505114736 16 113 0.0 0.0 0.00 0.00 0.00 78 1012.2
20260505113705 16 113 0.0 0.0 0.00 0.00 0.00 78 1012.2
20260505112703 16 180 0.0 0.0 0.00 0.00 0.00 80 1012.2
20260505111702 16 158 0.0 0.0 0.00 0.00 0.00 81 1012.2
20260505110701 16 113 0.0 0.0 0.00 0.00 0.00 82 1012.2
20260505101658 16 225 0.0 0.0 0.00 0.00 0.00 81 1012.2
20260505100626 16 135 0.0 0.0 0.00 0.00 0.00 81 1012.2
20260505095625 16 113 0.0 0.0 0.00 0.00 0.00 81 1012.2
20260505094624 16 158 0.0 0.0 0.00 0.00 0.00 81 1011.9
20260505093623 16 180 0.0 0.0 0.00 0.00 0.00 82 1011.9
20260505092622 16 158 0.0 3.2 0.00 0.00 0.00 83 1011.9
20260505091550 16 158 3.2 3.2 0.00 0.00 0.00 83 1011.9
20260505090549 16 203 0.0 0.0 0.00 0.00 0.00 83 1011.9
20260505085548 16 158 0.0 0.0 0.00 0.00 0.00 83 1011.9
20260505084547 16 180 0.0 0.0 0.00 0.00 0.00 83 1011.5
20260505083546 16 135 0.0 0.0 0.00 0.00 0.00 83 1011.5
20260505082544 16 270 0.0 0.0 0.00 0.00 0.00 85 1011.5
20260505081543 16 225 0.0 0.0 0.00 0.00 0.00 84 1011.5
20260505080543 16 293 0.0 0.0 0.00 0.00 0.00 84 1011.5
20260505075542 16 225 0.0 0.0 0.00 0.00 0.00 83 1012.2
20260505074510 16 158 0.0 0.0 0.00 0.00 0.00 83 1011.2
20260505073509 16 90 0.0 1.6 0.00 0.00 0.00 83 1011.2
20260505072508 16 90 1.6 4.8 0.00 0.00 0.00 84 1011.2
20260505071508 16 113 0.0 0.0 0.00 0.00 0.00 85 1010.8
20260505070507 16 135 0.0 0.0 0.00 0.00 0.00 87 1010.8
20260505065506 16 203 0.0 0.0 0.00 0.00 0.00 88 1010.8
20260505064434 15 135 0.0 3.2 0.00 0.00 0.00 88 1010.8
20260505063433 15 99 3.2 3.2 0.00 0.00 0.00 89 1010.8
20260505062432 15 135 0.0 0.0 0.00 0.00 0.00 90 1010.8
20260505061431 14 68 0.0 1.6 0.00 0.00 0.00 91 1010.5
20260505060430 13 68 1.6 1.6 0.00 0.00 0.00 91 1010.5
20260505055358 13 90 0.0 0.0 0.00 0.00 0.00 91 1010.5
20260505054357 13 45 0.0 0.0 0.00 0.00 0.00 91 1010.5
20260505053357 13 180 0.0 4.8 0.00 0.00 0.00 91 1010.2
20260505052356 13 158 0.0 0.0 0.00 0.00 0.00 91 1010.2
20260505051355 13 68 0.0 0.0 0.00 0.00 0.00 91 1009.8
20260505050354 13 203 0.0 0.0 0.00 0.00 0.00 91 1009.8
20260505041349 13 270 0.0 0.0 0.00 0.00 0.00 91 1010.5
20260505040348 13 113 0.0 1.6 0.00 0.00 0.00 91 1010.5
20260505035316 13 45 1.6 3.2 0.00 0.00 0.00 90 1010.5
20260505034315 12 90 0.0 12.9 0.00 0.00 0.00 91 1011.2
20260505033314 13 293 0.0 0.0 0.00 0.00 0.00 91 1011.5
20260505032242 13 293 0.0 0.0 0.00 0.00 0.00 91 1011.2
20260505031241 13 158 0.0 0.0 0.00 0.00 0.00 91 1011.9
20260505030240 13 248 0.0 0.0 0.00 0.00 0.00 91 1012.2
20260505025239 13 248 0.0 0.0 0.00 0.00 0.00 91 1011.9
20260505024238 13 180 0.0 0.0 0.00 0.00 0.00 91 1011.9
20260505023237 13 270 0.0 0.0 0.00 0.00 0.00 91 1011.5
20260505022236 13 248 0.0 3.2 0.00 0.00 0.00 91 1011.5
20260505021205 14 158 0.0 0.0 0.00 0.00 0.00 91 1011.9
20260505020133 14 68 0.0 1.6 0.00 0.00 0.00 91 1011.9
20260505015132 14 248 0.0 0.0 0.00 0.00 0.00 91 1012.2
20260505014029 15 338 3.2 3.2 0.00 0.00 0.00 91 1011.9
20260505013028 15 315 4.8 6.4 0.00 0.00 0.00 90 1012.2
20260505012027 14 135 4.8 4.8 0.00 0.00 0.00 91 1012.2
20260505010955 14 158 0.0 6.4 0.00 0.00 0.00 90 1012.5
20260505005955 14 270 0.0 0.0 0.00 0.00 0.00 90 1012.5
20260505004923 15 90 0.0 0.0 0.00 0.00 0.00 90 1012.9
20260505003922 14 90 0.0 0.0 0.00 0.00 0.00 90 1013.2
20260505002922 14 225 0.0 0.0 0.00 0.00 0.00 89 1013.2